This is the latest recevied weather packets stored in our database for station/object DL7HMX-13. If no packets are shown the sender has not sent any weather packets the latest 1 day(s).
| Time | Temp. | Humidity | Pressure | Rain* | Wind** | Luminosity | Snow |
|---|---|---|---|---|---|---|---|
| 1778086221 | 21.11° C | 47% | 1001.4 hPa | 0 mm | - | 3 W/m² | - |
| 1778082022 | 23.33° C | 38% | 1002.3 hPa | 0 mm | - | 123 W/m² | - |
| 1778079019 | 24.44° C | 36% | 1002.9 hPa | 0 mm | - | 418 W/m² | - |
| 1778078421 | 23.89° C | 37% | 1003 hPa | 0 mm | - | 446 W/m² | - |
| 1778071224 | 22.78° C | 45% | 1004.4 hPa | 0 mm | - | 681 W/m² | - |
| 1778069417 | 22.22° C | 49% | 1005.1 hPa | 0 mm | - | 461 W/m² | - |
| 1778068222 | 22.22° C | 52% | 1005.5 hPa | 0 mm | - | 722 W/m² | - |
| 1778067028 | 20.56° C | 56% | 1005.6 hPa | 0 mm | - | 530 W/m² | - |
| 1778065220 | 21.11° C | 57% | 1006.1 hPa | 0 mm | - | 268 W/m² | - |
| 1778064016 | 21.11° C | 57% | 1006.4 hPa | 0 mm | - | 608 W/m² | - |
| 1778061618 | 18.89° C | 61% | 1006.9 hPa | 0 mm | - | 391 W/m² | - |
| 1778061021 | 19.44° C | 61% | 1006.9 hPa | 0 mm | - | 234 W/m² | - |
| 1778060424 | 20° C | 60% | 1006.9 hPa | 0 mm | - | 631 W/m² | - |
| 1778058616 | 19.44° C | 66% | 1007 hPa | 0 mm | - | 635 W/m² | - |
| 1778057423 | 18.89° C | 68% | 1007.3 hPa | 0 mm | - | 582 W/m² | - |
| 1778053823 | 16.67° C | 77% | 1007.7 hPa | 0 mm | - | 362 W/m² | - |
| 1778051418 | 15.56° C | 81% | 1008.1 hPa | 0 mm | - | 225 W/m² | - |
| 1778050224 | 16.11° C | 79% | 1008.1 hPa | 0 mm | - | 228 W/m² | - |
| 1778049029 | 15° C | 82% | 1008.1 hPa | 0 mm | - | 174 W/m² | - |
| 1778048432 | 15° C | 86% | 1008.1 hPa | 0 mm | - | 191 W/m² | - |
| 1778047818 | 15° C | 85% | 1008.3 hPa | 0 mm | - | 219 W/m² | - |
| 1778047222 | 15° C | 87% | 1008.2 hPa | 0 mm | - | 201 W/m² | - |
| 1778046624 | 14.44° C | 90% | 1008.2 hPa | 0 mm | - | 150 W/m² | - |
| 1778046027 | 13.33° C | 94% | 1008.1 hPa | 0 mm | - | 104 W/m² | - |
| 1778045431 | 13.33° C | 93% | 1008.1 hPa | 0 mm | - | 123 W/m² | - |
* Rain latest hour (hover to see other rain measurements)
** Current wind speed in m/s (hover to see current wind gust speed)